Yampa, CO

8:23 AM MST on March 03, 2015 (GMT -0700)
Oak Creek | Change Station
CLOSE
Current Station
Personal Weather Station
Location: Oak Creek, CO
Elevation: 7444 ft
Nearby Weather Stations
Active Advisory: Winter Storm Warning

Elev 7444 ft 40.27 °N, 106.96 °W | Updated 35 seconds ago

Snow
Snow
22.9 °F
Feels Like 23 °F
N
2.0
Wind Variable Wind from North
Gusts 6.0 mph

Today
High -- | Low -- °F
--% Chance of Precip.
Yesterday
High -- | Low -- °F
Precip. -- in
6:38 AM 6:01 PM
Waxing Gibbous, 96% visible
Pressure 29.77 in
Visibility 2.0 miles
Clouds Scattered Clouds 1000 ft
Overcast 1800 ft
Windchill 23 °F
Dew Point 21 °F
Humidity 92%
Rainfall 0.00 in
Snow Depth Not available.
UV 0 out of 12
Pollen 3.70 out of 12
Air Quality Not available.
Flu Activity Not available.
METAR KSBS 031515Z AUTO 35003KT 2SM SCT010 OVC018 M05/M06 A2977 RMK AO1 T10461061

More Conditions Fewer Conditions

Pressure 29.77 in
Visibility 2.0 miles
Clouds Scattered Clouds 1000 ft
Overcast 1800 ft
Windchill 23 °F
Dew Point 21 °F
Humidity 92%
Rainfall 0.00 in
Snow Depth Not available.
UV 0 out of 12
Pollen 3.70 out of 12
Air Quality Not available.
Flu Activity Not available.
METAR KSBS 031515Z AUTO 35003KT 2SM SCT010 OVC018 M05/M06 A2977 RMK AO1 T10461061

More Conditions Fewer Conditions

10-Day Weather Forecast

Almanac

Astronomy

Mar. 03, 2015 Rise Set
Actual Time
Civil Twilight
Nautical Twilight
Astronomical Twilight
Moon
Length of Visible Light
Length of Day
Tomorrow will be .
, % of the Moon is Illuminated

Today's Extremes

State Highs State Lows

Community

WunderPhotos

Upload Photos

1,802,146 photos uploaded!

WunderBlogs® & News

Nearby

Air Quality

  Air Quality AQ Index Pollutant
Not available.

Snow Depth

Station Depth Elevation

Earthquake Activity

City Distance Mag. Time & Date
Minimum magnitude displayed is 2.5.

Coastal Water Temperatures

Place Temperature

Nearby Weather Stations

Winter Storm Warning
Statement as of 3:23 AM MST on March 03, 2015

... Winter Storm Warning remains in effect until 9 am MST
Wednesday...

* locations include the cities of... Columbine... Toponas.

* Timing... light snow this morning will become heavy at times
this afternoon and into Wednesday morning.

* Accumulation... additional 4 to 8 inches with locally higher
amounts.

* Winds... west 10 to 20 mph with gusts up to 40 mph over higher
terrain.

* Impacts... travel is expected to be difficult this afternoon and
overnight.

Precautionary/preparedness actions...

A Winter Storm Warning means significant amounts of snow are
expected or occurring. Strong winds and blowing snow are also
possible. This will make travel very hazardous or impossible.